Location: *
(5.6647°N, 75.7144°W)
Time: 06:31:25
(UTC+00:00)

Daily predictions for brighter satellites

Satellite Brightness Start Highest point End
(mag) Time Altitude Azimuth Time Altitude Azimuth Time Altitude Azimuth
ARIANE 5 R/B 3.5 23:20:00 10° SW 23:22:40 29° SSE 23:31:06 10° ESE
USA 81 4.0 23:25:24 10° N 23:30:39 74° E 23:35:55 10° S
STARLINK-1124 4.3 23:26:59 10° NNW 23:30:47 36° NE 23:34:35 10° ESE
Cosmos 1892 Rocket 3.9 23:29:04 10° N 23:33:31 74° W 23:37:55 10° S
ATLAS 5 CENTAUR R/B 2.7 23:29:52 10° SW 23:33:45 44° WNW 23:37:34 10° N
STARLINK-1122 4.1 23:31:52 10° NNW 23:35:46 41° NE 23:39:41 10° SE
Cosmos 1745 Rocket 4.1 23:30:40 10° N 23:36:50 84° W 23:42:58 10° S
SL-14 R/B 3.4 23:33:39 10° N 23:37:28 50° E 23:41:14 10° SSE
Cosmos 2228 4.0 23:36:05 10° SSE 23:39:33 24° E 23:43:01 10° NE
STARLINK-1126 3.9 23:36:45 10° NNW 23:40:43 48° NE 23:44:44 10° SE
OAO 2 Rocket 4.0 23:36:36 10° WNW 23:41:41 54° SW 23:46:39 10° SE
Meteor 2-5 Rocket 4.4 23:37:06 10° NNW 23:42:30 59° W 23:47:58 10° S
Ariane H10 3.7 23:40:19 10° WSW 23:43:06 63° S 23:50:02 12° E
USA 215 3.3 23:37:19 10° SE 23:43:53 88° NE 23:50:25 10° NW
Okean-O 2.8 23:39:58 10° S 23:44:23 78° WSW 23:48:48 10° NNW
ADEOS Rocket 4.1 23:39:26 10° N 23:44:47 45° WNW 23:49:59 10° SSW
Meteor 1-16 Rocket 4.2 23:39:48 10° S 23:44:56 52° E 23:50:09 10° NNE
STARLINK-1082 3.7 23:41:40 10° NNW 23:45:44 57° NE 23:49:46 10° SE
STARLINK-1100 3.6 23:46:35 10° NNW 23:50:41 66° NE 23:54:47 10° SE
Cosmos 1340 Rocket 4.1 23:49:33 10° SE 23:52:32 20° E 23:55:30 10° NE
STARLINK-1083 3.5 23:51:29 10° NNW 23:55:37 77° ENE 23:59:31 11° SE
Cosmos 1606 Rocket 3.8 23:51:27 10° SSE 23:55:39 47° E 23:59:53 10° NNE
